[[{"header":{"parameterUnit":"m.s-1","parameterCategory":1,"la1":30.2991,"la2":30.254,"lo1":-89.0895,"lo2":-89.0444,"dy":0.0017,"dx":0.0017,"nx":28,"ny":28,"refTime":"2024-03-24T03:00:00:Z","depth":0,"parameterNumber":2,"parameterNumberName":"U-component_of_WINDS"},"data":[0,0,0,0,0,0,0,0,0,0,0,0,0,0,0,0,0,0,0,0,0,0,0,0,0,0,0,0,0,0,0,0,0,0,0,0,0,0,0,0,0,0,0,0,0,0,0,0,0,0,0,0,0,0,0,0,0,0,-5.4133,-5.4134,0,-5.4182,-5.4183,-5.4183,-5.4119,-5.4117,-5.4115,-5.4112,-5.4161,-5.4165,-5.4168,0,0,0,0,0,0,0,0,0,0,0,0,0,-5.3983,-5.3986,-5.4133,-5.4134,-5.4134,-5.4182,-5.4183,-5.4184,-5.412,-5.4117,-5.4114,-5.4111,-5.416,-5.4164,-5.4169,0,0,0,0,0,0,0,0,0,0,0,0,0,-5.4041,-5.3987,-5.4133,-5.4108,-5.4106,-5.4182,-5.4183,-5.4184,-5.412,-5.4117,-5.4113,-5.411,-5.4159,-5.4164,-5.4169,-5.4271,0,0,-5.4185,-5.4187,0,0,0,0,0,0,0,0,-5.4038,-5.4047,-5.4111,-5.411,-5.4108,-5.4141,-5.4148,-5.4213,-5.4121,-5.4115,-5.4112,-5.4108,-5.4157,-5.4163,-5.4179,-5.4273,-5.4275,-5.4186,-5.4189,-5.4191,-5.4192,0,0,0,0,0,0,0,-5.4034,-5.4045,-5.4152,-5.4112,-5.411,-5.4094,-5.4099,-5.416,-5.4155,-5.4115,-5.4111,-5.4117,-5.4156,-5.4175,-5.418,-5.4276,-5.4185,-5.419,-5.4193,-5.4195,-5.4455,-5.4459,0,0,0,0,0,0,-5.4033,-5.4042,-5.4151,-5.4154,-5.4064,-5.41,-5.4105,-5.4134,-5.4154,-5.4154,-5.412,-5.4114,-5.4167,-5.4174,-5.4182,-5.4301,-5.4191,-5.4196,-5.4199,-5.4452,-5.4456,-5.446,0,0,0,0,0,0,-5.403,-5.4044,-5.4149,-5.4097,-5.4109,-5.4106,-5.4139,-5.4137,-5.4155,-5.4158,-5.4157,-5.414,-5.4165,-5.4174,-5.4249,-5.4302,-5.4198,-5.4203,-5.4447,-5.4453,-5.4458,-5.4541,0,0,0,0,0,0,-5.4026,-5.4043,-5.4082,-5.4098,-5.4112,-5.4216,-5.4143,-5.414,-5.4165,-5.4157,-5.4176,-5.4176,-5.4163,-5.4242,-5.4254,-5.4307,-5.4207,-5.4442,-5.445,-5.4457,-5.4534,-5.4549,-5.4562,0,0,0,0,0,-5.4021,-5.4103,-5.4084,-5.4097,-5.416,-5.4219,-5.4227,-5.421,-5.4169,-5.4208,-5.421,-5.4176,-5.4295,-5.425,-5.4264,-5.4319,-5.4439,-5.4448,-5.4456,-5.4527,-5.4546,-5.4562,0,0,0,0,0,0,-5.4092,-5.4104,-5.4083,-5.4173,-5.4196,-5.4208,-5.4256,-5.4231,-5.4265,-5.4256,-5.4234,-5.4239,-5.4319,-5.4327,-5.4277,-5.4418,-5.436,-5.4372,-5.4409,-5.4427,-5.4441,-5.4436,-5.4211,0,0,0,0,0,-5.4118,-5.4165,-5.4174,-5.4252,-5.4264,-5.4259,-5.4284,-5.4269,-5.4291,-5.43,-5.4308,-5.433,-5.4373,-5.4401,-5.444,-5.4536,-5.4538,-5.458,-5.4594,-5.4606,-5.4615,-5.4665,-5.4684,-5.4488,-5.4488,-5.4488,0,0,-5.4172,-5.4185,-5.4216,-5.4267,-5.4282,-5.4331,-5.4267,-5.4322,-5.4357,-5.4308,-5.4379,-5.4386,-5.441,-5.4495,-5.4533,-5.4504,-5.4671,-5.4617,-5.4626,-5.4629,-5.4676,-5.4695,-5.4711,-5.4494,-5.4493,-5.4492,0,0,-5.4295,-5.4311,-5.4377,-5.4394,-5.4419,-5.4415,-5.4431,-5.4448,-5.4451,-5.4522,-5.4486,-5.4529,-5.4602,-5.462,-5.4639,-5.4771,-5.474,-5.4785,-5.4858,-5.4907,-5.4922,-5.4936,-5.4981,-5.4997,-5.4795,-5.4795,-5.4795,0,-5.4359,-5.4431,-5.4414,-5.4471,-5.4494,-5.4453,-5.452,-5.4538,-5.4574,-5.459,-5.4558,-5.465,-5.4663,-5.4751,-5.4784,-5.4801,-5.4818,-5.4781,-5.4922,-5.4935,-5.4947,-5.499,-5.5007,-5.48,-5.48,-5.4799,-5.4799,0,-5.4508,-5.4559,-5.4609,-5.4646,-5.4675,-5.4736,-5.4728,-5.4759,-5.4743,-5.4743,-5.4815,-5.483,-5.4871,-5.4892,-5.4876,-5.4979,-5.4959,-5.4925,-5.4866,-5.4971,-5.5011,-5.5027,-5.4807,-5.4806,-5.4804,-5.4803,0,0,-5.4674,-5.4701,-5.472,-5.4736,-5.4761,-5.48,-5.486,-5.4901,-5.4927,-5.4955,-5.5003,-5.5068,-5.5036,-5.5058,-5.5044,-5.5088,-5.5189,-5.5047,-5.5047,-5.5071,-5.5301,-5.5324,-5.5344,-5.517,-5.5173,-5.5176,-5.5298,0,-5.4795,-5.4899,-5.4885,-5.4984,-5.503,-5.4994,-5.5046,-5.5067,-5.5069,-5.5108,-5.511,-5.5155,-5.5111,-5.5123,-5.5165,-5.5168,-5.5234,-5.5159,-5.5214,-5.5216,-5.5206,-5.5365,-5.539,-5.5504,-5.5313,-5.5316,-5.5318,0,-5.495,-5.4983,-5.5087,-5.5105,-5.5124,-5.5171,-5.5207,-5.5246,-5.5269,-5.5267,-5.5292,-5.5271,-5.5331,-5.5273,-5.5354,-5.5303,-5.5326,-5.5331,-5.5335,-5.5336,-5.5271,-5.5368,-5.554,-5.5556,-5.5343,-5.5341,-5.5339,0,-5.5058,-5.5129,-5.5199,-5.5215,-5.5238,-5.5272,-5.5283,-5.5303,-5.5329,-5.5361,-5.5377,-5.5416,-5.5437,-5.5467,-5.5457,-5.5416,-5.554,-5.5481,-5.5538,-5.5539,-5.5563,-5.5561,-5.5739,-5.5583,-5.5583,-5.5582,-5.5582,0,-5.5193,-5.5257,-5.5248,-5.5291,-5.5362,-5.5347,-5.5418,-5.5425,-5.5443,-5.5487,-5.5459,-5.55,-5.5486,-5.5526,-5.5519,-5.5587,-5.5597,-5.5596,-5.5593,-5.5597,-5.5597,-5.5609,-5.56,-5.5587,-5.5586,-5.5585,-5.5584,0,-5.5324,-5.5321,-5.5395,-5.5412,-5.5418,-5.5469,-5.5483,-5.5524,-5.5524,-5.558,-5.5592,-5.5593,-5.5639,-5.5633,-5.5685,-5.568,-5.5764,-5.5752,-5.5755,-5.5752,-5.5808,-5.5802,-5.5997,-5.6021,-5.5852,-5.5854,-5.5855,0,-5.5409,-5.5458,-5.548,-5.5508,-5.5521,-5.5566,-5.5592,-5.558,-5.5608,-5.5639,-5.5675,-5.572,-5.5754,-5.583,-5.5834,-5.5874,-5.5862,-5.5927,-5.5867,-5.587,-5.586,-5.5856,-5.586,-5.5938,-5.594,-5.5942,-5.5943,0,-5.556,-5.5556,-5.5595,-5.5633,-5.5665,-5.5695,-5.5721,-5.5745,-5.5736,-5.5769,-5.5816,-5.5843,-5.5896,-5.594,-5.5978,-5.5989,-5.5964,-5.5963,-5.5977,-5.598,-5.5979,-5.5978,-5.5785,-5.5957,-5.5956,-5.5955,-5.5954,-5.5953,-5.5669,-5.571,-5.5732,-5.5776,-5.5795,-5.5821,-5.5859,-5.5865,-5.5905,-5.5947,-5.5938,-5.5991,-5.6013,-5.6061,-5.6077,-5.6118,-5.6094,-5.6116,-5.6121,-5.6126,-5.6131,-5.5976,-5.6125,-5.6125,-5.6124,-5.6124,-5.6124,0,-5.5816,-5.5828,-5.5869,-5.5907,-5.5942,-5.5918,-5.5946,-5.5976,-5.6024,-5.6047,-5.6082,-5.6136,-5.6179,-5.6188,-5.6228,-5.626,-5.6249,-5.627,-5.6266,-5.6269,-5.6152,-5.6134,-5.6278,-5.6278,-5.6278,-5.6278,-5.6278,-5.6278,-5.5896,-5.5964,-5.5963,-5.604,-5.6052,-5.6104,-5.6122,-5.6146,-5.6164,-5.6226,-5.6262,-5.6268,-5.6285,-5.6327,-5.6365,-5.6366,-5.6381,-5.6407,-5.6403,-5.6293,-5.6277,-5.6263,-5.6245,-5.6411,-5.6411,-5.6517,-5.6518,-5.6518]},{"header":{"parameterUnit":"m.s-1","parameterCategory":1,"la1":30.2991,"la2":30.254,"lo1":-89.0895,"lo2":-89.0444,"dy":0.0017,"dx":0.0017,"nx":28,"ny":28,"refTime":"2024-03-24T03:00:00:Z","depth":0,"parameterNumber":3,"parameterNumberName":"V-component_of_WINDS"},"data":[0,0,0,0,0,0,0,0,0,0,0,0,0,0,0,0,0,0,0,0,0,0,0,0,0,0,0,0,0,0,0,0,0,0,0,0,0,0,0,0,0,0,0,0,0,0,0,0,0,0,0,0,0,0,0,0,0,0,2.3645,2.3646,0,2.3706,2.3706,2.3707,2.3736,2.3736,2.3736,2.3736,2.3799,2.38,2.3802,0,0,0,0,0,0,0,0,0,0,0,0,0,2.3558,2.3559,2.3645,2.3646,2.3647,2.3705,2.3706,2.3707,2.3736,2.3736,2.3736,2.3736,2.3798,2.38,2.3802,0,0,0,0,0,0,0,0,0,0,0,0,0,2.3605,2.356,2.3645,2.3668,2.3671,2.3705,2.3706,2.3707,2.3736,2.3736,2.3736,2.3736,2.3797,2.38,2.3802,2.3819,0,0,2.381,2.3811,0,0,0,0,0,0,0,0,2.3602,2.3608,2.3664,2.3667,2.367,2.3713,2.3698,2.3745,2.3736,2.3711,2.3736,2.3736,2.377,2.3775,2.3787,2.3821,2.3824,2.381,2.3812,2.3813,2.3814,0,0,0,0,0,0,0,2.3599,2.3605,2.3669,2.3665,2.3668,2.3677,2.3683,2.3707,2.374,2.3714,2.3716,2.3723,2.3772,2.3784,2.3788,2.3825,2.381,2.3813,2.3814,2.3815,2.3879,2.388,0,0,0,0,0,0,2.3591,2.3602,2.3667,2.3671,2.3635,2.3678,2.3686,2.3699,2.374,2.3746,2.3722,2.3724,2.378,2.3785,2.3791,2.3814,2.3813,2.3815,2.3817,2.3879,2.3879,2.388,0,0,0,0,0,0,2.3589,2.3597,2.3665,2.3637,2.3647,2.368,2.3695,2.3701,2.3713,2.3747,2.3753,2.3729,2.378,2.3787,2.3812,2.3816,2.3816,2.3819,2.3879,2.3879,2.3879,2.3859,0,0,0,0,0,0,2.3587,2.3596,2.3602,2.3637,2.3648,2.3684,2.3695,2.3702,2.3717,2.3719,2.3754,2.376,2.378,2.3808,2.3814,2.382,2.3821,2.3879,2.3879,2.3879,2.386,2.3859,2.3858,0,0,0,0,0,2.3583,2.3593,2.3602,2.3609,2.3656,2.3684,2.3691,2.3714,2.3717,2.3724,2.3746,2.3759,2.3815,2.381,2.3818,2.3824,2.3878,2.3879,2.3879,2.386,2.3859,2.3858,0,0,0,0,0,0,2.3557,2.3598,2.3608,2.3629,2.3653,2.3689,2.3698,2.3711,2.3735,2.3736,2.3764,2.3771,2.3794,2.3812,2.3806,2.3843,2.3848,2.385,2.3831,2.383,2.3829,2.3825,2.3823,0,0,0,0,0,2.3553,2.3573,2.3608,2.3623,2.3635,2.3664,2.3678,2.3694,2.372,2.373,2.3754,2.3779,2.3803,2.3817,2.3841,2.3863,2.3872,2.3871,2.387,2.3869,2.3871,2.3886,2.3886,2.3881,2.3881,2.3881,0,0,2.3546,2.3571,2.3582,2.3619,2.3639,2.366,2.3673,2.3693,2.3709,2.3733,2.3758,2.3777,2.3807,2.3831,2.3843,2.3847,2.3874,2.387,2.3869,2.3871,2.3886,2.3887,2.3887,2.3881,2.3881,2.3881,0,0,2.3545,2.3565,2.3581,2.3601,2.3632,2.3652,2.3656,2.3691,2.3704,2.373,2.3749,2.3769,2.3808,2.383,2.3846,2.3855,2.3868,2.3861,2.3857,2.3872,2.3872,2.3873,2.3877,2.3879,2.3863,2.3863,2.3863,0,2.3532,2.3563,2.3587,2.3608,2.3624,2.3647,2.3665,2.3684,2.3721,2.3732,2.3735,2.3787,2.3808,2.3839,2.3841,2.3853,2.386,2.3857,2.387,2.3871,2.3872,2.3877,2.3878,2.3862,2.3862,2.3862,2.3862,0,2.3547,2.3568,2.3578,2.3614,2.3631,2.365,2.3678,2.3693,2.3708,2.3728,2.3756,2.3783,2.3813,2.3822,2.3836,2.3855,2.3857,2.3865,2.387,2.3871,2.3876,2.3878,2.386,2.3861,2.3861,2.3861,0,0,2.3528,2.3579,2.3582,2.36,2.3637,2.3654,2.3675,2.3705,2.3718,2.3743,2.3762,2.3796,2.3804,2.3823,2.384,2.3853,2.386,2.386,2.3861,2.386,2.3885,2.3879,2.3881,2.3869,2.387,2.387,2.3883,0,2.3533,2.357,2.3594,2.3622,2.3643,2.3667,2.3685,2.3711,2.3731,2.3752,2.3775,2.3799,2.3807,2.3819,2.3832,2.3856,2.3866,2.3856,2.3889,2.3889,2.3881,2.3883,2.3877,2.3887,2.3885,2.3885,2.3886,0,2.3542,2.3567,2.3598,2.3634,2.3644,2.366,2.3691,2.3711,2.3741,2.3755,2.3776,2.3794,2.3818,2.3822,2.3857,2.385,2.3865,2.3879,2.388,2.3884,2.3888,2.3889,2.3891,2.3893,2.3889,2.3888,2.3888,0,2.3527,2.3569,2.3593,2.3607,2.365,2.3661,2.368,2.371,2.3727,2.3754,2.3766,2.3795,2.3811,2.3834,2.3861,2.3861,2.3894,2.3899,2.3907,2.3906,2.3913,2.3912,2.3919,2.3921,2.3921,2.3921,2.3921,0,2.3529,2.3547,2.3587,2.3602,2.3624,2.3652,2.3673,2.3694,2.3721,2.3741,2.3763,2.3782,2.3815,2.3839,2.386,2.3887,2.3893,2.3906,2.3912,2.3905,2.3903,2.3915,2.3915,2.3922,2.3922,2.3921,2.3921,0,2.3515,2.3543,2.3571,2.361,2.3621,2.3635,2.3669,2.3685,2.3707,2.3733,2.3741,2.3775,2.3804,2.3833,2.3872,2.3886,2.3913,2.392,2.3903,2.3906,2.3913,2.3912,2.3928,2.3932,2.3931,2.3931,2.3931,0,2.3515,2.353,2.3571,2.3586,2.3605,2.3629,2.3647,2.3676,2.3694,2.3731,2.3743,2.3774,2.38,2.3846,2.3875,2.3905,2.3914,2.3917,2.3918,2.3912,2.3915,2.3914,2.3917,2.3916,2.3916,2.3916,2.3916,0,2.3512,2.3526,2.3551,2.3581,2.3602,2.3627,2.3654,2.3665,2.37,2.3719,2.3749,2.377,2.381,2.3841,2.3876,2.3896,2.3912,2.3916,2.3919,2.3912,2.3903,2.3909,2.3902,2.3915,2.3915,2.3915,2.3915,2.3915,2.3506,2.3521,2.3553,2.3581,2.3604,2.3629,2.3646,2.3671,2.3697,2.3732,2.3748,2.3779,2.3811,2.3859,2.388,2.3905,2.3909,2.3914,2.3915,2.3916,2.3915,2.3898,2.3911,2.3911,2.3911,2.3911,2.3911,0,2.3506,2.3528,2.3553,2.359,2.3612,2.3626,2.3656,2.3674,2.3701,2.373,2.3755,2.3791,2.3822,2.3855,2.3888,2.3902,2.391,2.391,2.3909,2.3914,2.3909,2.3903,2.3902,2.3902,2.3902,2.3902,2.3902,2.3902,2.3508,2.3535,2.3552,2.3592,2.3614,2.3644,2.3661,2.3684,2.3708,2.3747,2.3773,2.3793,2.3824,2.386,2.389,2.3899,2.391,2.3908,2.3919,2.3914,2.3914,2.3915,2.3909,2.391,2.391,2.3922,2.3922,2.3922]}]]